owner,sensor,date,latitude,longitude,vertical_datum,wind_speed,wind_to_direction,wind_speed_of_gust,qcFlag 
ADCP,ioos:station:wmo:42364:1,2014-12-01T00:30:00Z,29.0600,-88.0900,122.0,9.3,137.0,99.0,'11111222,11111222,11144222' 
ADCP,ioos:station:wmo:42364:1,2014-12-01T01:30:00Z,29.0600,-88.0900,122.0,9.3,137.0,99.0,'11111222,11111222,11144222' 
ADCP,ioos:station:wmo:42364:1,2014-12-01T02:30:00Z,29.0600,-88.0900,122.0,9.5,138.0,99.0,'11111222,11111222,11144222' 
ADCP,ioos:station:wmo:42364:1,2014-12-01T03:30:00Z,29.0600,-88.0900,122.0,9.6,137.0,99.0,'11111222,11111222,11144222' 
ADCP,ioos:station:wmo:42364:1,2014-12-01T04:30:00Z,29.0600,-88.0900,122.0,10.4,140.0,99.0,'11111222,11111222,11144222' 
ADCP,ioos:station:wmo:42364:1,2014-12-01T05:30:00Z,29.0600,-88.0900,122.0,9.7,140.0,99.0,'11111222,11111222,11144222' 
ADCP,ioos:station:wmo:42364:1,2014-12-01T06:30:00Z,29.0600,-88.0900,122.0,9.6,139.0,99.0,'11111222,11111222,11144222' 
ADCP,ioos:station:wmo:42364:1,2014-12-01T07:30:00Z,29.0600,-88.0900,122.0,8.6,137.0,99.0,'11111222,11111222,11144222' 
ADCP,ioos:station:wmo:42364:1,2014-12-01T08:30:00Z,29.0600,-88.0900,122.0,7.0,136.0,99.0,'11111222,11111222,11144222' 
ADCP,ioos:station:wmo:42364:1,2014-12-01T09:30:00Z,29.0600,-88.0900,122.0,5.9,128.0,99.0,'11111222,11111222,11144222' 
ADCP,ioos:station:wmo:42364:1,2014-12-01T10:30:00Z,29.0600,-88.0900,122.0,6.1,131.0,99.0,'11111222,11111222,11144222' 
ADCP,ioos:station:wmo:42364:1,2014-12-01T11:30:00Z,29.0600,-88.0900,122.0,6.1,132.0,99.0,'11111222,11111222,11144222' 
ADCP,ioos:station:wmo:42364:1,2014-12-01T12:30:00Z,29.0600,-88.0900,122.0,6.8,127.0,99.0,'11111222,11111222,11144222' 
ADCP,ioos:station:wmo:42364:1,2014-12-01T13:30:00Z,29.0600,-88.0900,122.0,6.2,124.0,99.0,'11111222,11111222,11144222' 
ADCP,ioos:station:wmo:42364:1,2014-12-01T14:30:00Z,29.0600,-88.0900,122.0,5.7,116.0,99.0,'11111222,11111222,11144222' 
ADCP,ioos:station:wmo:42364:1,2014-12-01T16:30:00Z,29.0600,-88.0900,122.0,6.5,96.0,99.0,'11111222,11111222,11144222' 
ADCP,ioos:station:wmo:42364:1,2014-12-01T17:30:00Z,29.0600,-88.0900,122.0,6.8,93.0,99.0,'11111222,11111222,11144222' 
ADCP,ioos:station:wmo:42364:1,2014-12-01T18:30:00Z,29.0600,-88.0900,122.0,6.3,95.0,99.0,'11111222,11111222,11144222' 
ADCP,ioos:station:wmo:42364:1,2014-12-01T19:30:00Z,29.0600,-88.0900,122.0,6.6,86.0,99.0,'11111222,11111222,11144222' 
ADCP,ioos:station:wmo:42364:1,2014-12-01T20:30:00Z,29.0600,-88.0900,122.0,7.3,80.0,99.0,'11111222,11111222,11144222' 
ADCP,ioos:station:wmo:42364:1,2014-12-01T22:30:00Z,29.0600,-88.0900,122.0,7.8,90.0,99.0,'11111222,11111222,11144222' 
ADCP,ioos:station:wmo:42364:1,2014-12-01T23:30:00Z,29.0600,-88.0900,122.0,7.4,88.0,99.0,'11111222,11111222,11144222' 
ADCP,ioos:station:wmo:42364:1,2014-12-02T01:30:00Z,29.0600,-88.0900,122.0,7.1,85.0,99.0,'11111222,11111222,11144222' 
ADCP,ioos:station:wmo:42364:1,2014-12-02T02:30:00Z,29.0600,-88.0900,122.0,7.0,80.0,99.0,'11111222,11111222,11144222' 
ADCP,ioos:station:wmo:42364:1,2014-12-02T03:30:00Z,29.0600,-88.0900,122.0,6.8,79.0,99.0,'11111222,11111222,11144222' 
ADCP,ioos:station:wmo:42364:1,2014-12-02T04:30:00Z,29.0600,-88.0900,122.0,6.2,76.0,99.0,'11111222,11111222,11144222' 
ADCP,ioos:station:wmo:42364:1,2014-12-02T05:30:00Z,29.0600,-88.0900,122.0,5.8,81.0,99.0,'11111222,11111222,11144222' 
ADCP,ioos:station:wmo:42364:1,2014-12-02T07:30:00Z,29.0600,-88.0900,122.0,6.0,76.0,99.0,'11111222,11111222,11144222' 
ADCP,ioos:station:wmo:42364:1,2014-12-02T08:30:00Z,29.0600,-88.0900,122.0,6.2,69.0,99.0,'11111222,11111222,11144222' 
ADCP,ioos:station:wmo:42364:1,2014-12-02T09:30:00Z,29.0600,-88.0900,122.0,5.7,66.0,99.0,'11111222,11111222,11144222' 
ADCP,ioos:station:wmo:42364:1,2014-12-02T10:30:00Z,29.0600,-88.0900,122.0,6.0,60.0,99.0,'11111222,11111222,11144222' 
ADCP,ioos:station:wmo:42364:1,2014-12-02T11:30:00Z,29.0600,-88.0900,122.0,6.1,61.0,99.0,'11111222,11111222,11144222' 
ADCP,ioos:station:wmo:42364:1,2014-12-02T12:30:00Z,29.0600,-88.0900,122.0,7.0,60.0,99.0,'11111222,11111222,11144222' 
ADCP,ioos:station:wmo:42364:1,2014-12-02T13:30:00Z,29.0600,-88.0900,122.0,6.9,64.0,99.0,'11111222,11111222,11144222' 
ADCP,ioos:station:wmo:42364:1,2014-12-02T16:30:00Z,29.0600,-88.0900,122.0,4.6,54.0,99.0,'11111222,11111222,11144222' 
ADCP,ioos:station:wmo:42364:1,2014-12-02T17:30:00Z,29.0600,-88.0900,122.0,4.7,59.0,99.0,'11111222,11111222,11144222' 
ADCP,ioos:station:wmo:42364:1,2014-12-02T18:30:00Z,29.0600,-88.0900,122.0,4.4,52.0,99.0,'11111222,11111222,11144222' 
ADCP,ioos:station:wmo:42364:1,2014-12-02T19:30:00Z,29.0600,-88.0900,122.0,4.7,50.0,99.0,'11111222,11111222,11144222' 
ADCP,ioos:station:wmo:42364:1,2014-12-02T21:30:00Z,29.0600,-88.0900,122.0,6.1,55.0,99.0,'11111222,11111222,11144222' 
ADCP,ioos:station:wmo:42364:1,2014-12-02T22:30:00Z,29.0600,-88.0900,122.0,6.7,79.0,99.0,'11111222,11111222,11144222' 
ADCP,ioos:station:wmo:42364:1,2014-12-02T23:30:00Z,29.0600,-88.0900,122.0,7.6,80.0,99.0,'11111222,11111222,11144222' 
ADCP,ioos:station:wmo:42364:1,2014-12-03T00:30:00Z,29.0600,-88.0900,122.0,6.9,80.0,99.0,'11111222,11111222,11144222' 
ADCP,ioos:station:wmo:42364:1,2014-12-03T02:30:00Z,29.0600,-88.0900,122.0,6.3,97.0,99.0,'11111222,11111222,11144222' 
ADCP,ioos:station:wmo:42364:1,2014-12-03T03:30:00Z,29.0600,-88.0900,122.0,6.7,104.0,99.0,'11111222,11111222,11144222' 
ADCP,ioos:station:wmo:42364:1,2014-12-03T04:30:00Z,29.0600,-88.0900,122.0,7.3,110.0,99.0,'11111222,11111222,11144222' 
ADCP,ioos:station:wmo:42364:1,2014-12-03T07:30:00Z,29.0600,-88.0900,122.0,7.3,117.0,99.0,'11111222,11111222,11144222' 
ADCP,ioos:station:wmo:42364:1,2014-12-03T08:30:00Z,29.0600,-88.0900,122.0,6.0,113.0,99.0,'11111222,11111222,11144222' 
ADCP,ioos:station:wmo:42364:1,2014-12-03T10:30:00Z,29.0600,-88.0900,122.0,4.3,97.0,99.0,'11111222,11111222,11144222' 
ADCP,ioos:station:wmo:42364:1,2014-12-03T11:30:00Z,29.0600,-88.0900,122.0,5.4,90.0,99.0,'11111222,11111222,11144222' 
ADCP,ioos:station:wmo:42364:1,2014-12-03T12:30:00Z,29.0600,-88.0900,122.0,6.2,83.0,99.0,'11111222,11111222,11144222' 
ADCP,ioos:station:wmo:42364:1,2014-12-03T13:30:00Z,29.0600,-88.0900,122.0,7.1,80.0,99.0,'11111222,11111222,11144222' 
ADCP,ioos:station:wmo:42364:1,2014-12-03T15:30:00Z,29.0600,-88.0900,122.0,5.7,72.0,99.0,'11111222,11111222,11144222' 
ADCP,ioos:station:wmo:42364:1,2014-12-03T16:30:00Z,29.0600,-88.0900,122.0,4.9,65.0,99.0,'11111222,11111222,11144222' 
ADCP,ioos:station:wmo:42364:1,2014-12-03T18:30:00Z,29.0600,-88.0900,122.0,4.0,83.0,99.0,'11111222,11111222,11144222' 
ADCP,ioos:station:wmo:42364:1,2014-12-03T19:30:00Z,29.0600,-88.0900,122.0,4.3,91.0,99.0,'11111222,11111222,11144222' 
ADCP,ioos:station:wmo:42364:1,2014-12-03T20:30:00Z,29.0600,-88.0900,122.0,4.9,79.0,99.0,'11111222,11111222,11144222' 
ADCP,ioos:station:wmo:42364:1,2014-12-03T21:30:00Z,29.0600,-88.0900,122.0,5.1,79.0,99.0,'11111222,11111222,11144222' 
ADCP,ioos:station:wmo:42364:1,2014-12-03T22:30:00Z,29.0600,-88.0900,122.0,6.4,74.0,99.0,'11111222,11111222,11144222' 
ADCP,ioos:station:wmo:42364:1,2014-12-03T23:30:00Z,29.0600,-88.0900,122.0,7.2,62.0,99.0,'11111222,11111222,11144222' 
ADCP,ioos:station:wmo:42364:1,2014-12-04T00:03:00Z,29.0600,-88.0900,122.0,7.9,61.0,99.0,'11111222,11111222,11144222' 
ADCP,ioos:station:wmo:42364:1,2014-12-04T01:30:00Z,29.0600,-88.0900,122.0,7.7,73.0,99.0,'11111222,11111222,11144222' 
ADCP,ioos:station:wmo:42364:1,2014-12-04T02:30:00Z,29.0600,-88.0900,122.0,7.5,85.0,99.0,'11111222,11111222,11144222' 
ADCP,ioos:station:wmo:42364:1,2014-12-04T03:30:00Z,29.0600,-88.0900,122.0,6.8,100.0,99.0,'11111222,11111222,11144222' 
ADCP,ioos:station:wmo:42364:1,2014-12-04T04:30:00Z,29.0600,-88.0900,122.0,6.6,104.0,99.0,'11111222,11111222,11144222' 
ADCP,ioos:station:wmo:42364:1,2014-12-04T05:30:00Z,29.0600,-88.0900,122.0,6.7,109.0,99.0,'11111222,11111222,11144222' 
ADCP,ioos:station:wmo:42364:1,2014-12-04T06:30:00Z,29.0600,-88.0900,122.0,7.6,115.0,99.0,'11111222,11111222,11144222' 
ADCP,ioos:station:wmo:42364:1,2014-12-04T07:30:00Z,29.0600,-88.0900,122.0,99.0,122.0,99.0,'11144222,11111222,11144222' 
ADCP,ioos:station:wmo:42364:1,2014-12-04T08:30:00Z,29.0600,-88.0900,122.0,7.4,122.0,99.0,'11111222,11111222,11144222' 
ADCP,ioos:station:wmo:42364:1,2014-12-04T09:30:00Z,29.0600,-88.0900,122.0,6.7,123.0,99.0,'11111222,11111222,11144222' 
ADCP,ioos:station:wmo:42364:1,2014-12-04T10:30:00Z,29.0600,-88.0900,122.0,6.8,130.0,99.0,'11111222,11111222,11144222' 
ADCP,ioos:station:wmo:42364:1,2014-12-04T11:30:00Z,29.0600,-88.0900,122.0,7.1,130.0,99.0,'11111222,11111222,11144222' 
ADCP,ioos:station:wmo:42364:1,2014-12-04T13:30:00Z,29.0600,-88.0900,122.0,6.1,117.0,99.0,'11111222,11111222,11144222' 
ADCP,ioos:station:wmo:42364:1,2014-12-04T15:30:00Z,29.0600,-88.0900,122.0,6.9,119.0,99.0,'11111222,11111222,11144222' 
ADCP,ioos:station:wmo:42364:1,2014-12-04T17:30:00Z,29.0600,-88.0900,122.0,7.0,129.0,99.0,'11111222,11111222,11144222' 
ADCP,ioos:station:wmo:42364:1,2014-12-04T18:30:00Z,29.0600,-88.0900,122.0,7.9,130.0,99.0,'11111222,11111222,11144222' 
ADCP,ioos:station:wmo:42364:1,2014-12-04T20:30:00Z,29.0600,-88.0900,122.0,7.2,131.0,99.0,'11111222,11111222,11144222' 
ADCP,ioos:station:wmo:42364:1,2014-12-04T22:30:00Z,29.0600,-88.0900,122.0,6.6,115.0,99.0,'11111222,11111222,11144222' 
ADCP,ioos:station:wmo:42364:1,2014-12-04T23:30:00Z,29.0600,-88.0900,122.0,6.9,115.0,99.0,'11111222,11111222,11144222' 
ADCP,ioos:station:wmo:42364:1,2014-12-05T00:30:00Z,29.0600,-88.0900,122.0,6.7,109.0,99.0,'11111222,11111222,11144222' 
ADCP,ioos:station:wmo:42364:1,2014-12-05T01:30:00Z,29.0600,-88.0900,122.0,7.4,112.0,99.0,'11111222,11111222,11144222' 
ADCP,ioos:station:wmo:42364:1,2014-12-05T02:30:00Z,29.0600,-88.0900,122.0,8.1,119.0,99.0,'11111222,11111222,11144222' 
ADCP,ioos:station:wmo:42364:1,2014-12-05T03:30:00Z,29.0600,-88.0900,122.0,7.8,123.0,99.0,'11111222,11111222,11144222' 
ADCP,ioos:station:wmo:42364:1,2014-12-05T04:30:00Z,29.0600,-88.0900,122.0,7.9,130.0,99.0,'11111222,11111222,11144222' 
ADCP,ioos:station:wmo:42364:1,2014-12-05T05:30:00Z,29.0600,-88.0900,122.0,8.1,131.0,99.0,'11111222,11111222,11144222' 
ADCP,ioos:station:wmo:42364:1,2014-12-05T06:30:00Z,29.0600,-88.0900,122.0,7.8,133.0,99.0,'11111222,11111222,11144222' 
ADCP,ioos:station:wmo:42364:1,2014-12-05T07:30:00Z,29.0600,-88.0900,122.0,7.9,139.0,99.0,'11111222,11111222,11144222' 
ADCP,ioos:station:wmo:42364:1,2014-12-05T08:30:00Z,29.0600,-88.0900,122.0,7.8,137.0,99.0,'11111222,11111222,11144222' 
ADCP,ioos:station:wmo:42364:1,2014-12-05T09:30:00Z,29.0600,-88.0900,122.0,7.8,134.0,99.0,'11111222,11111222,11144222' 
ADCP,ioos:station:wmo:42364:1,2014-12-05T10:30:00Z,29.0600,-88.0900,122.0,7.7,131.0,99.0,'11111222,11111222,11144222' 
ADCP,ioos:station:wmo:42364:1,2014-12-05T11:30:00Z,29.0600,-88.0900,122.0,7.6,129.0,99.0,'11111222,11111222,11144222' 
ADCP,ioos:station:wmo:42364:1,2014-12-05T13:30:00Z,29.0600,-88.0900,122.0,6.6,122.0,99.0,'11111222,11111222,11144222' 
ADCP,ioos:station:wmo:42364:1,2014-12-05T14:30:00Z,29.0600,-88.0900,122.0,6.7,124.0,99.0,'11111222,11111222,11144222' 
ADCP,ioos:station:wmo:42364:1,2014-12-05T15:30:00Z,29.0600,-88.0900,122.0,7.1,125.0,99.0,'11111222,11111222,11144222' 
ADCP,ioos:station:wmo:42364:1,2014-12-05T17:30:00Z,29.0600,-88.0900,122.0,7.1,128.0,99.0,'11111222,11111222,11144222' 
ADCP,ioos:station:wmo:42364:1,2014-12-05T18:30:00Z,29.0600,-88.0900,122.0,6.5,123.0,99.0,'11111222,11111222,11144222' 
ADCP,ioos:station:wmo:42364:1,2014-12-05T19:30:00Z,29.0600,-88.0900,122.0,6.6,122.0,99.0,'11111222,11111222,11144222' 
ADCP,ioos:station:wmo:42364:1,2014-12-05T20:30:00Z,29.0600,-88.0900,122.0,7.3,123.0,99.0,'11111222,11111222,11144222' 
ADCP,ioos:station:wmo:42364:1,2014-12-05T21:30:00Z,29.0600,-88.0900,122.0,7.7,127.0,99.0,'11111222,11111222,11144222' 
ADCP,ioos:station:wmo:42364:1,2014-12-05T22:30:00Z,29.0600,-88.0900,122.0,7.5,124.0,99.0,'11111222,11111222,11144222' 
ADCP,ioos:station:wmo:42364:1,2014-12-05T23:30:00Z,29.0600,-88.0900,122.0,7.8,127.0,99.0,'11111222,11111222,11144222' 
ADCP,ioos:station:wmo:42364:1,2014-12-06T00:30:00Z,29.0600,-88.0900,122.0,8.3,128.0,99.0,'11111222,11111222,11144222' 
ADCP,ioos:station:wmo:42364:1,2014-12-06T01:30:00Z,29.0600,-88.0900,122.0,9.3,136.0,99.0,'11111222,11111222,11144222' 
ADCP,ioos:station:wmo:42364:1,2014-12-06T02:30:00Z,29.0600,-88.0900,122.0,8.5,137.0,99.0,'11111222,11111222,11144222' 
ADCP,ioos:station:wmo:42364:1,2014-12-06T03:30:00Z,29.0600,-88.0900,122.0,8.1,140.0,99.0,'11111222,11111222,11144222' 
ADCP,ioos:station:wmo:42364:1,2014-12-06T09:30:00Z,29.0600,-88.0900,122.0,4.0,142.0,99.0,'11111222,11111222,11144222' 
ADCP,ioos:station:wmo:42364:1,2014-12-06T10:30:00Z,29.0600,-88.0900,122.0,4.0,150.0,99.0,'11111222,11111222,11144222' 
ADCP,ioos:station:wmo:42364:1,2014-12-06T11:30:00Z,29.0600,-88.0900,122.0,3.8,158.0,99.0,'11111222,11111222,11144222' 
ADCP,ioos:station:wmo:42364:1,2014-12-06T12:30:00Z,29.0600,-88.0900,122.0,2.4,162.0,99.0,'11111222,11111222,11144222' 
ADCP,ioos:station:wmo:42364:1,2014-12-06T13:30:00Z,29.0600,-88.0900,122.0,0.2,20.0,99.0,'11111222,11111222,11144222' 
ADCP,ioos:station:wmo:42364:1,2014-12-06T14:30:00Z,29.0600,-88.0900,122.0,0.2,340.0,99.0,'11111222,11111222,11144222' 
ADCP,ioos:station:wmo:42364:1,2014-12-06T15:30:00Z,29.0600,-88.0900,122.0,0.1,352.0,99.0,'11111222,11111222,11144222' 
ADCP,ioos:station:wmo:42364:1,2014-12-06T16:30:00Z,29.0600,-88.0900,122.0,0.7,304.0,99.0,'11111222,11111222,11144222' 
ADCP,ioos:station:wmo:42364:1,2014-12-06T17:30:00Z,29.0600,-88.0900,122.0,2.0,266.0,99.0,'11111222,11111222,11144222' 
ADCP,ioos:station:wmo:42364:1,2014-12-06T18:30:00Z,29.0600,-88.0900,122.0,3.8,276.0,99.0,'11111222,11111222,11144222' 
ADCP,ioos:station:wmo:42364:1,2014-12-06T19:30:00Z,29.0600,-88.0900,122.0,4.5,292.0,99.0,'11111222,11111222,11144222' 
ADCP,ioos:station:wmo:42364:1,2014-12-06T20:30:00Z,29.0600,-88.0900,122.0,4.9,310.0,99.0,'11111222,11111222,11144222' 
ADCP,ioos:station:wmo:42364:1,2014-12-06T21:30:00Z,29.0600,-88.0900,122.0,4.4,322.0,99.0,'11111222,11111222,11144222' 
ADCP,ioos:station:wmo:42364:1,2014-12-06T22:30:00Z,29.0600,-88.0900,122.0,4.2,317.0,99.0,'11111222,11111222,11144222' 
ADCP,ioos:station:wmo:42364:1,2014-12-06T23:30:00Z,29.0600,-88.0900,122.0,3.7,323.0,99.0,'11111222,11111222,11144222' 
ADCP,ioos:station:wmo:42364:1,2014-12-07T00:30:00Z,29.0600,-88.0900,122.0,2.0,309.0,99.0,'11111222,11111222,11144222' 
ADCP,ioos:station:wmo:42364:1,2014-12-07T01:30:00Z,29.0600,-88.0900,122.0,2.5,290.0,99.0,'11111222,11111222,11144222' 
ADCP,ioos:station:wmo:42364:1,2014-12-07T02:30:00Z,29.0600,-88.0900,122.0,4.1,301.0,99.0,'11111222,11111222,11144222' 
ADCP,ioos:station:wmo:42364:1,2014-12-07T03:30:00Z,29.0600,-88.0900,122.0,9.5,342.0,99.0,'11111222,11111222,11144222' 
ADCP,ioos:station:wmo:42364:1,2014-12-07T04:30:00Z,29.0600,-88.0900,122.0,10.9,10.0,99.0,'11111222,11111222,11144222' 
ADCP,ioos:station:wmo:42364:1,2014-12-07T05:30:00Z,29.0600,-88.0900,122.0,10.3,10.0,99.0,'11111222,11111222,11144222' 
ADCP,ioos:station:wmo:42364:1,2014-12-07T06:30:00Z,29.0600,-88.0900,122.0,11.2,5.0,99.0,'11111222,11111222,11144222' 
ADCP,ioos:station:wmo:42364:1,2014-12-07T07:30:00Z,29.0600,-88.0900,122.0,11.6,7.0,99.0,'11111222,11111222,11144222' 
ADCP,ioos:station:wmo:42364:1,2014-12-07T08:30:00Z,29.0600,-88.0900,122.0,9.9,14.0,99.0,'11111222,11111222,11144222' 
ADCP,ioos:station:wmo:42364:1,2014-12-07T09:30:00Z,29.0600,-88.0900,122.0,9.6,15.0,99.0,'11111222,11111222,11144222' 
ADCP,ioos:station:wmo:42364:1,2014-12-07T10:30:00Z,29.0600,-88.0900,122.0,8.7,12.0,99.0,'11111222,11111222,11144222' 
ADCP,ioos:station:wmo:42364:1,2014-12-07T11:30:00Z,29.0600,-88.0900,122.0,9.2,23.0,99.0,'11111222,11111222,11144222' 
ADCP,ioos:station:wmo:42364:1,2014-12-07T12:30:00Z,29.0600,-88.0900,122.0,10.2,20.0,99.0,'11111222,11111222,11144222' 
ADCP,ioos:station:wmo:42364:1,2014-12-07T13:30:00Z,29.0600,-88.0900,122.0,9.7,27.0,99.0,'11111222,11111222,11144222' 
ADCP,ioos:station:wmo:42364:1,2014-12-07T14:30:00Z,29.0600,-88.0900,122.0,9.4,29.0,99.0,'11111222,11111222,11144222' 
ADCP,ioos:station:wmo:42364:1,2014-12-07T15:30:00Z,29.0600,-88.0900,122.0,10.5,29.0,99.0,'11111222,11111222,11144222' 
ADCP,ioos:station:wmo:42364:1,2014-12-07T16:30:00Z,29.0600,-88.0900,122.0,9.5,32.0,99.0,'11111222,11111222,11144222' 
ADCP,ioos:station:wmo:42364:1,2014-12-07T17:30:00Z,29.0600,-88.0900,122.0,8.7,31.0,99.0,'11111222,11111222,11144222' 
ADCP,ioos:station:wmo:42364:1,2014-12-07T18:30:00Z,29.0600,-88.0900,122.0,7.9,29.0,99.0,'11111222,11111222,11144222' 
ADCP,ioos:station:wmo:42364:1,2014-12-07T19:30:00Z,29.0600,-88.0900,122.0,7.5,23.0,99.0,'11111222,11111222,11144222' 
ADCP,ioos:station:wmo:42364:1,2014-12-07T20:30:00Z,29.0600,-88.0900,122.0,7.2,18.0,99.0,'11111222,11111222,11144222' 
ADCP,ioos:station:wmo:42364:1,2014-12-07T21:30:00Z,29.0600,-88.0900,122.0,7.1,17.0,99.0,'11111222,11111222,11144222' 
ADCP,ioos:station:wmo:42364:1,2014-12-07T22:30:00Z,29.0600,-88.0900,122.0,7.1,16.0,99.0,'11111222,11111222,11144222' 
ADCP,ioos:station:wmo:42364:1,2014-12-07T23:30:00Z,29.0600,-88.0900,122.0,6.4,23.0,99.0,'11111222,11111222,11144222' 
ADCP,ioos:station:wmo:42364:1,2014-12-08T00:30:00Z,29.0600,-88.0900,122.0,6.3,33.0,99.0,'11111222,11111222,11144222' 
ADCP,ioos:station:wmo:42364:1,2014-12-08T01:30:00Z,29.0600,-88.0900,122.0,6.5,27.0,99.0,'11111222,11111222,11144222' 
ADCP,ioos:station:wmo:42364:1,2014-12-08T02:30:00Z,29.0600,-88.0900,122.0,6.0,24.0,99.0,'11111222,11111222,11144222' 
ADCP,ioos:station:wmo:42364:1,2014-12-08T03:30:00Z,29.0600,-88.0900,122.0,5.4,37.0,99.0,'11111222,11111222,11144222' 
ADCP,ioos:station:wmo:42364:1,2014-12-08T04:30:00Z,29.0600,-88.0900,122.0,4.8,42.0,99.0,'11111222,11111222,11144222' 
ADCP,ioos:station:wmo:42364:1,2014-12-08T05:30:00Z,29.0600,-88.0900,122.0,4.5,56.0,99.0,'11111222,11111222,11144222' 
ADCP,ioos:station:wmo:42364:1,2014-12-08T06:30:00Z,29.0600,-88.0900,122.0,3.6,60.0,99.0,'11111222,11111222,11144222' 
ADCP,ioos:station:wmo:42364:1,2014-12-08T07:30:00Z,29.0600,-88.0900,122.0,3.2,62.0,99.0,'11111222,11111222,11144222' 
ADCP,ioos:station:wmo:42364:1,2014-12-08T08:30:00Z,29.0600,-88.0900,122.0,1.9,65.0,99.0,'11111222,11111222,11144222' 
ADCP,ioos:station:wmo:42364:1,2014-12-08T09:30:00Z,29.0600,-88.0900,122.0,4.5,8.0,99.0,'11111222,11111222,11144222' 
ADCP,ioos:station:wmo:42364:1,2014-12-08T10:30:00Z,29.0600,-88.0900,122.0,7.2,347.0,99.0,'11111222,11111222,11144222' 
ADCP,ioos:station:wmo:42364:1,2014-12-08T11:30:00Z,29.0600,-88.0900,122.0,6.1,346.0,99.0,'11111222,11111222,11144222' 
ADCP,ioos:station:wmo:42364:1,2014-12-08T12:30:00Z,29.0600,-88.0900,122.0,6.3,337.0,99.0,'11111222,11111222,11144222' 
ADCP,ioos:station:wmo:42364:1,2014-12-08T13:30:00Z,29.0600,-88.0900,122.0,4.5,3.0,99.0,'11111222,11111222,11144222' 
ADCP,ioos:station:wmo:42364:1,2014-12-08T14:30:00Z,29.0600,-88.0900,122.0,5.3,71.0,99.0,'11111222,11111222,11144222' 
ADCP,ioos:station:wmo:42364:1,2014-12-08T15:30:00Z,29.0600,-88.0900,122.0,4.9,65.0,99.0,'11111222,11111222,11144222' 
ADCP,ioos:station:wmo:42364:1,2014-12-08T17:30:00Z,29.0600,-88.0900,122.0,3.5,61.0,99.0,'11111222,11111222,11144222' 
ADCP,ioos:station:wmo:42364:1,2014-12-08T18:30:00Z,29.0600,-88.0900,122.0,5.7,28.0,99.0,'11111222,11111222,11144222' 
ADCP,ioos:station:wmo:42364:1,2014-12-08T19:30:00Z,29.0600,-88.0900,122.0,6.8,33.0,99.0,'11111222,11111222,11144222' 
ADCP,ioos:station:wmo:42364:1,2014-12-08T20:30:00Z,29.0600,-88.0900,122.0,7.3,32.0,99.0,'11111222,11111222,11144222' 
ADCP,ioos:station:wmo:42364:1,2014-12-08T21:30:00Z,29.0600,-88.0900,122.0,8.9,21.0,99.0,'11111222,11111222,11144222' 
ADCP,ioos:station:wmo:42364:1,2014-12-08T22:30:00Z,29.0600,-88.0900,122.0,8.6,18.0,99.0,'11111222,11111222,11144222' 
ADCP,ioos:station:wmo:42364:1,2014-12-08T23:30:00Z,29.0600,-88.0900,122.0,7.8,11.0,99.0,'11111222,11111222,11144222' 
ADCP,ioos:station:wmo:42364:1,2014-12-09T00:30:00Z,29.0600,-88.0900,122.0,8.1,2.0,99.0,'11111222,11111222,11144222' 
ADCP,ioos:station:wmo:42364:1,2014-12-09T01:30:00Z,29.0600,-88.0900,122.0,8.0,13.0,99.0,'11111222,11111222,11144222' 
ADCP,ioos:station:wmo:42364:1,2014-12-09T02:30:00Z,29.0600,-88.0900,122.0,7.7,19.0,99.0,'11111222,11111222,11144222' 
ADCP,ioos:station:wmo:42364:1,2014-12-09T03:30:00Z,29.0600,-88.0900,122.0,7.7,20.0,99.0,'11111222,11111222,11144222' 
ADCP,ioos:station:wmo:42364:1,2014-12-09T04:30:00Z,29.0600,-88.0900,122.0,6.6,17.0,99.0,'11111222,11111222,11144222' 
ADCP,ioos:station:wmo:42364:1,2014-12-09T05:30:00Z,29.0600,-88.0900,122.0,6.1,15.0,99.0,'11111222,11111222,11144222' 
ADCP,ioos:station:wmo:42364:1,2014-12-09T06:30:00Z,29.0600,-88.0900,122.0,6.3,12.0,99.0,'11111222,11111222,11144222' 
ADCP,ioos:station:wmo:42364:1,2014-12-09T07:30:00Z,29.0600,-88.0900,122.0,5.6,7.0,99.0,'11111222,11111222,11144222' 
ADCP,ioos:station:wmo:42364:1,2014-12-09T08:30:00Z,29.0600,-88.0900,122.0,5.7,359.0,99.0,'11111222,11111222,11144222' 
ADCP,ioos:station:wmo:42364:1,2014-12-09T09:30:00Z,29.0600,-88.0900,122.0,6.1,351.0,99.0,'11111222,11111222,11144222' 
ADCP,ioos:station:wmo:42364:1,2014-12-09T10:30:00Z,29.0600,-88.0900,122.0,6.2,350.0,99.0,'11111222,11111222,11144222' 
ADCP,ioos:station:wmo:42364:1,2014-12-09T11:30:00Z,29.0600,-88.0900,122.0,7.0,346.0,99.0,'11111222,11111222,11144222' 
ADCP,ioos:station:wmo:42364:1,2014-12-09T12:30:00Z,29.0600,-88.0900,122.0,7.9,338.0,99.0,'11111222,11111222,11144222' 
ADCP,ioos:station:wmo:42364:1,2014-12-09T13:30:00Z,29.0600,-88.0900,122.0,9.0,338.0,99.0,'11111222,11111222,11144222' 
ADCP,ioos:station:wmo:42364:1,2014-12-09T14:30:00Z,29.0600,-88.0900,122.0,9.8,346.0,99.0,'11111222,11111222,11144222' 
ADCP,ioos:station:wmo:42364:1,2014-12-09T15:30:00Z,29.0600,-88.0900,122.0,8.4,344.0,99.0,'11111222,11111222,11144222' 
ADCP,ioos:station:wmo:42364:1,2014-12-09T16:30:00Z,29.0600,-88.0900,122.0,7.0,330.0,99.0,'11111222,11111222,11144222' 
ADCP,ioos:station:wmo:42364:1,2014-12-09T17:30:00Z,29.0600,-88.0900,122.0,8.8,341.0,99.0,'11111222,11111222,11144222' 
ADCP,ioos:station:wmo:42364:1,2014-12-09T18:30:00Z,29.0600,-88.0900,122.0,8.3,346.0,99.0,'11111222,11111222,11144222' 
ADCP,ioos:station:wmo:42364:1,2014-12-09T19:30:00Z,29.0600,-88.0900,122.0,8.4,349.0,99.0,'11111222,11111222,11144222' 
ADCP,ioos:station:wmo:42364:1,2014-12-09T20:30:00Z,29.0600,-88.0900,122.0,8.5,350.0,99.0,'11111222,11111222,11144222' 
ADCP,ioos:station:wmo:42364:1,2014-12-09T21:30:00Z,29.0600,-88.0900,122.0,7.1,346.0,99.0,'11111222,11111222,11144222' 
ADCP,ioos:station:wmo:42364:1,2014-12-09T22:30:00Z,29.0600,-88.0900,122.0,7.0,341.0,99.0,'11111222,11111222,11144222' 
ADCP,ioos:station:wmo:42364:1,2014-12-09T23:30:00Z,29.0600,-88.0900,122.0,7.2,332.0,99.0,'11111222,11111222,11144222' 
ADCP,ioos:station:wmo:42364:1,2014-12-10T00:30:00Z,29.0600,-88.0900,122.0,7.7,330.0,99.0,'11111222,11111222,11144222' 
ADCP,ioos:station:wmo:42364:1,2014-12-10T01:30:00Z,29.0600,-88.0900,122.0,7.6,327.0,99.0,'11111222,11111222,11144222' 
ADCP,ioos:station:wmo:42364:1,2014-12-10T02:30:00Z,29.0600,-88.0900,122.0,8.0,320.0,99.0,'11111222,11111222,11144222' 
ADCP,ioos:station:wmo:42364:1,2014-12-10T03:30:00Z,29.0600,-88.0900,122.0,9.2,325.0,99.0,'11111222,11111222,11144222' 
ADCP,ioos:station:wmo:42364:1,2014-12-10T04:30:00Z,29.0600,-88.0900,122.0,9.4,332.0,99.0,'11111222,11111222,11144222' 
ADCP,ioos:station:wmo:42364:1,2014-12-10T05:30:00Z,29.0600,-88.0900,122.0,9.2,342.0,99.0,'11111222,11111222,11144222' 
ADCP,ioos:station:wmo:42364:1,2014-12-10T06:30:00Z,29.0600,-88.0900,122.0,9.4,343.0,99.0,'11111222,11111222,11144222' 
ADCP,ioos:station:wmo:42364:1,2014-12-10T07:30:00Z,29.0600,-88.0900,122.0,9.0,349.0,99.0,'11111222,11111222,11144222' 
ADCP,ioos:station:wmo:42364:1,2014-12-10T08:30:00Z,29.0600,-88.0900,122.0,8.8,349.0,99.0,'11111222,11111222,11144222' 
ADCP,ioos:station:wmo:42364:1,2014-12-10T09:30:00Z,29.0600,-88.0900,122.0,9.3,345.0,99.0,'11111222,11111222,11144222' 
ADCP,ioos:station:wmo:42364:1,2014-12-10T10:30:00Z,29.0600,-88.0900,122.0,8.7,347.0,99.0,'11111222,11111222,11144222' 